Location: G�migny
(47.9646°N, 1.6950°E)
Time: 10:11:41
(UTC+00:00)

Abrixas rocket - Pass Details

Date: 23 October 2019
Orbit: 359 x 367 km, 48.4° (Epoch: 21 November)

Event Time Altitude Azimuth Distance (km) Brightness Sun altitude
Rises 18:51:15 0° 274° (W) 2,224 7.5 -20.8°
Reaches altitude 10° 18:53:18 10° 275° (W) 1,373 6.0 -21.2°
Enters shadow 18:55:41 49° 285° (WNW) 486 2.9 -21.6°
